CW9792 Weather Reports


time (UTC)temp
C
wind
direction
speed
KPH
gust
KPH
rain 1hr
cm
rain 24hr
cm
rain mn
cm
humidity
%
barometer
mb
20260905004541 28 151 0.0 0.0 0.00 0.00 0.00 58 1012.2
20260905004040 28 151 0.0 0.0 0.00 0.00 0.00 56 1012.1
20260905003540 29 151 0.0 1.6 0.00 0.00 0.00 56 1012.1
20260905003041 30 151 0.0 1.6 0.00 0.00 0.00 55 1012.1
20260905002539 30 5 0.0 0.0 0.00 0.00 0.00 54 1012.1
20260905002039 30 5 0.0 0.0 0.00 0.00 0.00 53 1012.1
20260905001539 31 5 0.0 0.0 0.00 0.00 0.00 52 1012.2
20260905001041 31 5 0.0 0.0 0.00 0.00 0.00 51 1012.2
20260905000542 31 5 0.0 0.0 0.00 0.00 0.00 50 1012.2
20260905000039 31 5 0.0 0.0 0.00 0.00 0.00 50 1012.2
20260904235541 32 5 0.0 0.0 0.00 0.00 0.00 49 1012.2
20260904235038 32 5 0.0 0.0 0.00 0.00 0.00 46 1012.3
20260904234538 33 5 0.0 0.0 0.00 0.00 0.00 45 1012.3
20260904234038 33 5 0.0 0.0 0.00 0.00 0.00 44 1012.3
20260904233542 33 5 0.0 0.0 0.00 0.00 0.00 44 1012.3
20260904233038 33 5 0.0 0.0 0.00 0.00 0.00 43 1012.3
20260904232541 33 5 0.0 0.0 0.00 0.00 0.00 41 1012.2
20260904232037 33 5 0.0 0.0 0.00 0.00 0.00 41 1012.2
20260904231552 34 5 0.0 0.0 0.00 0.00 0.00 40 1012.1
20260904231037 35 5 0.0 0.0 0.00 0.00 0.00 37 1012.2
20260904230537 35 5 0.0 0.0 0.00 0.00 0.00 36 1012.2
20260904230037 35 5 0.0 0.0 0.00 0.00 0.00 36 1012.2
20260904225536 35 355 0.0 0.0 0.00 0.00 0.00 37 1012.3
20260904225039 35 355 0.0 0.0 0.00 0.00 0.00 38 1012.2
20260904224536 35 355 0.0 0.0 0.00 0.00 0.00 37 1012.2
20260904224037 35 355 0.0 0.0 0.00 0.00 0.00 37 1012.1
20260904223535 35 355 0.0 0.0 0.00 0.00 0.00 36 1012.2
20260904223038 35 336 0.0 0.0 0.00 0.00 0.00 37 1012.2
20260904222540 35 355 0.0 0.0 0.00 0.00 0.00 37 1012.2
20260904222035 35 9 0.0 0.0 0.00 0.00 0.00 36 1012.2
20260904221539 35 360 0.0 0.0 0.00 0.00 0.00 35 1012.2
20260904221035 35 5 0.0 0.0 0.00 0.00 0.00 35 1012.2
20260904220535 36 360 0.0 0.0 0.00 0.00 0.00 34 1012.2
20260904220036 36 5 0.0 0.0 0.00 0.00 0.00 33 1012.2
20260904215535 36 20 0.0 0.0 0.00 0.00 0.00 33 1012.1
20260904215034 36 341 0.0 0.0 0.00 0.00 0.00 33 1012.2
20260904214535 36 341 0.0 0.0 0.00 0.00 0.00 33 1012.1
20260904214034 36 319 0.0 0.0 0.00 0.00 0.00 34 1012.2
20260904213534 36 345 0.0 0.0 0.00 0.00 0.00 35 1012.2
20260904213033 36 298 0.0 0.0 0.00 0.00 0.00 33 1012.1
20260904212532 36 314 0.0 0.0 0.00 0.00 0.00 33 1012.2
20260904212031 36 360 0.0 0.0 0.00 0.00 0.00 32 1012.3
20260904211531 36 9 0.0 0.0 0.00 0.00 0.00 33 1012.4
20260904211035 36 298 0.0 0.0 0.00 0.00 0.00 33 1012.4
20260904210531 36 328 0.0 0.0 0.00 0.00 0.00 32 1012.4
20260904210034 35 294 0.0 0.0 0.00 0.00 0.00 33 1012.4
20260904205530 35 281 0.0 0.0 0.00 0.00 0.00 33 1012.4
20260904205029 36 289 0.0 0.0 0.00 0.00 0.00 36 1012.5
20260904204531 35 286 0.0 0.0 0.00 0.00 0.00 34 1012.6
20260904204028 36 342 0.0 0.0 0.00 0.00 0.00 35 1012.6
20260904203528 36 284 0.0 0.0 0.00 0.00 0.00 33 1012.7
20260904203030 36 298 0.0 0.0 0.00 0.00 0.00 33 1012.8
20260904202526 35 294 0.0 0.0 0.00 0.00 0.00 33 1012.9
20260904202027 36 345 0.0 0.0 0.00 0.00 0.00 33 1012.9
20260904201525 36 348 0.0 0.0 0.00 0.00 0.00 34 1013.0
20260904201025 36 301 0.0 0.0 0.00 0.00 0.00 36 1013.0
20260904200527 36 296 0.0 0.0 0.00 0.00 0.00 34 1013.0
20260904200035 36 329 0.0 0.0 0.00 0.00 0.00 34 1013.1
20260904195523 36 5 0.0 0.0 0.00 0.00 0.00 32 1013.2
20260904195024 37 9 0.0 0.0 0.00 0.00 0.00 33 1013.4
20260904194521 36 40 0.0 0.0 0.00 0.00 0.00 35 1013.4
20260904194020 35 9 0.0 0.0 0.00 0.00 0.00 36 1013.5
20260904193522 35 355 0.0 0.0 0.00 0.00 0.00 38 1013.7
20260904193020 35 9 0.0 0.0 0.00 0.00 0.00 36 1013.7
20260904192518 35 342 0.0 0.0 0.00 0.00 0.00 36 1013.8
20260904192018 35 355 0.0 0.0 0.00 0.00 0.00 36 1013.9
20260904191518 36 348 0.0 0.0 0.00 0.00 0.00 35 1014.0
20260904191018 36 355 0.0 0.0 0.00 0.00 0.00 36 1014.1
20260904190618 35 327 0.0 0.0 0.00 0.00 0.00 36 1014.1
20260904190017 35 327 0.0 0.0 0.00 0.00 0.00 38 1014.2
20260904185517 34 350 0.0 0.0 0.00 0.00 0.00 38 1014.3
20260904185017 34 342 0.0 0.0 0.00 0.00 0.00 36 1014.4
20260904184517 35 331 0.0 0.0 0.00 0.00 0.00 36 1014.3
20260904184017 35 355 0.0 0.0 0.00 0.00 0.00 37 1014.4
20260904183517 35 18 0.0 0.0 0.00 0.00 0.00 36 1014.4
20260904183017 35 343 0.0 0.0 0.00 0.00 0.00 38 1014.5
20260904182521 35 315 0.0 0.0 0.00 0.00 0.00 36 1014.5
20260904182016 35 345 0.0 0.0 0.00 0.00 0.00 36 1014.6
20260904181516 35 337 0.0 0.0 0.00 0.00 0.00 36 1014.5
20260904181016 35 280 0.0 1.6 0.00 0.00 0.00 35 1014.6
20260904180519 36 246 0.0 0.0 0.00 0.00 0.00 34 1014.6
20260904180015 35 10 0.0 3.2 0.00 0.00 0.00 34 1014.7
20260904175516 36 249 0.0 3.2 0.00 0.00 0.00 35 1014.7
20260904175013 35 281 0.0 0.0 0.00 0.00 0.00 36 1014.8
20260904174516 35 285 0.0 0.0 0.00 0.00 0.00 36 1014.9
20260904174013 35 308 0.0 0.0 0.00 0.00 0.00 35 1014.9
20260904173517 35 298 0.0 0.0 0.00 0.00 0.00 36 1015.0
20260904173015 35 313 0.0 0.0 0.00 0.00 0.00 35 1014.9
20260904172511 35 350 0.0 0.0 0.00 0.00 0.00 37 1014.8
20260904172011 35 306 0.0 0.0 0.00 0.00 0.00 36 1015.0
20260904171510 35 315 0.0 0.0 0.00 0.00 0.00 37 1015.0
20260904171010 35 327 0.0 0.0 0.00 0.00 0.00 36 1015.0
20260904170509 35 338 0.0 0.0 0.00 0.00 0.00 36 1015.1
20260904170009 34 326 0.0 0.0 0.00 0.00 0.00 37 1015.1
20260904165509 34 312 0.0 0.0 0.00 0.00 0.00 37 1015.1
20260904165009 34 355 0.0 0.0 0.00 0.00 0.00 37 1015.2
20260904164508 34 291 0.0 0.0 0.00 0.00 0.00 38 1015.3
20260904164009 34 284 0.0 0.0 0.00 0.00 0.00 38 1015.3
20260904163508 34 284 0.0 0.0 0.00 0.00 0.00 38 1015.3
20260904163015 34 348 0.0 0.0 0.00 0.00 0.00 38 1015.3
20260904162506 34 323 0.0 0.0 0.00 0.00 0.00 39 1015.2
20260904162006 34 348 0.0 0.0 0.00 0.00 0.00 40 1015.2
20260904161507 34 300 0.0 0.0 0.00 0.00 0.00 40 1015.2
20260904161005 34 306 0.0 0.0 0.00 0.00 0.00 40 1015.2
20260904160505 33 287 0.0 0.0 0.00 0.00 0.00 43 1015.2
20260904160008 33 285 0.0 0.0 0.00 0.00 0.00 41 1015.2
20260904155504 33 289 0.0 0.0 0.00 0.00 0.00 40 1015.3
20260904155004 33 300 0.0 0.0 0.00 0.00 0.00 40 1015.3
20260904154504 33 323 0.0 0.0 0.00 0.00 0.00 39 1015.3
20260904154003 34 338 0.0 0.0 0.00 0.00 0.00 39 1015.2
20260904153504 33 288 0.0 0.0 0.00 0.00 0.00 42 1015.3
20260904153001 33 287 0.0 0.0 0.00 0.00 0.00 42 1015.3
20260904152600 33 286 0.0 0.0 0.00 0.00 0.00 41 1015.3
20260904152100 33 295 0.0 0.0 0.00 0.00 0.00 43 1015.4
20260904151559 33 292 0.0 0.0 0.00 0.00 0.00 42 1015.4
20260904151058 33 276 0.0 0.0 0.00 0.00 0.00 41 1015.3
20260904150601 33 296 0.0 0.0 0.00 0.00 0.00 42 1015.3
20260904150056 32 295 0.0 0.0 0.00 0.00 0.00 44 1015.3
20260904145555 32 312 0.0 0.0 0.00 0.00 0.00 45 1015.3
20260904145055 32 286 0.0 0.0 0.00 0.00 0.00 45 1015.2
20260904144555 32 277 0.0 0.0 0.00 0.00 0.00 45 1015.3
20260904144054 32 329 0.0 0.0 0.00 0.00 0.00 45 1015.3
20260904143553 32 277 0.0 0.0 0.00 0.00 0.00 47 1015.3
20260904143053 32 277 0.0 0.0 0.00 0.00 0.00 47 1015.2
20260904142551 31 277 0.0 0.0 0.00 0.00 0.00 49 1015.2
20260904142050 31 277 0.0 0.0 0.00 0.00 0.00 49 1015.3
20260904141555 31 277 0.0 0.0 0.00 0.00 0.00 49 1015.3
20260904141047 31 276 0.0 0.0 0.00 0.00 0.00 50 1015.2
20260904140547 30 262 0.0 0.0 0.00 0.00 0.00 53 1015.3
20260904140048 30 168 0.0 0.0 0.00 0.00 0.00 56 1015.3
20260904135546 29 168 0.0 0.0 0.00 0.00 0.00 57 1015.2
20260904135042 28 168 0.0 0.0 0.00 0.00 0.00 57 1015.2
20260904134600 28 159 0.0 0.0 0.00 0.00 0.00 58 1015.2
20260904134039 28 158 0.0 0.0 0.00 0.00 0.00 58 1015.3
20260904133538 27 178 0.0 0.0 0.00 0.00 0.00 58 1015.3
20260904133039 27 178 0.0 0.0 0.00 0.00 0.00 58 1015.3
20260904132537 27 161 0.0 0.0 0.00 0.00 0.00 58 1015.3
20260904132033 26 180 0.0 0.0 0.00 0.00 0.00 58 1015.2
20260904131533 26 181 0.0 0.0 0.00 0.00 0.00 58 1015.2
20260904131032 26 181 0.0 0.0 0.00 0.00 0.00 59 1015.2
20260904130532 26 90 0.0 0.0 0.00 0.00 0.00 60 1015.2
20260904130035 25 82 0.0 0.0 0.00 0.00 0.00 61 1015.1
20260904125534 25 221 0.0 0.0 0.00 0.00 0.00 63 1015.2
20260904125031 24 221 0.0 0.0 0.00 0.00 0.00 64 1015.1
20260904124530 24 221 0.0 0.0 0.00 0.00 0.00 66 1015.0
20260904124029 23 221 0.0 0.0 0.00 0.00 0.00 67 1014.9
20260904123529 23 223 0.0 0.0 0.00 0.00 0.00 67 1014.9
20260904123029 23 223 0.0 0.0 0.00 0.00 0.00 67 1014.9
20260904122528 23 223 0.0 0.0 0.00 0.00 0.00 67 1014.9
20260904122030 22 225 0.0 0.0 0.00 0.00 0.00 67 1014.8
20260904121527 22 227 0.0 0.0 0.00 0.00 0.00 66 1014.8
20260904121026 22 227 0.0 0.0 0.00 0.00 0.00 66 1014.8
20260904120528 22 227 0.0 0.0 0.00 0.00 0.00 66 1014.9
20260904120027 22 227 0.0 0.0 0.00 0.00 0.00 66 1014.8
20260904115528 22 227 0.0 0.0 0.00 0.00 0.00 66 1014.8
20260904115026 22 227 0.0 0.0 0.00 0.00 0.00 66 1014.8
20260904114526 22 227 0.0 0.0 0.00 0.00 0.00 66 1014.7
20260904114031 22 227 0.0 0.0 0.00 0.00 0.00 65 1014.8
20260904113525 22 227 0.0 0.0 0.00 0.00 0.00 65 1014.7
20260904113023 22 227 0.0 0.0 0.00 0.00 0.00 65 1014.5
20260904112522 22 227 0.0 0.0 0.00 0.00 0.00 65 1014.5
20260904112022 22 227 0.0 0.0 0.00 0.00 0.00 65 1014.5
20260904111522 22 227 0.0 0.0 0.00 0.00 0.00 65 1014.5
20260904111022 22 227 0.0 0.0 0.00 0.00 0.00 65 1014.4
20260904110521 22 227 0.0 0.0 0.00 0.00 0.00 65 1014.4
20260904110020 22 227 0.0 0.0 0.00 0.00 0.00 65 1014.2
20260904105522 22 227 0.0 0.0 0.00 0.00 0.00 65 1014.2
20260904105021 22 227 0.0 0.0 0.00 0.00 0.00 65 1014.3
20260904104520 22 227 0.0 0.0 0.00 0.00 0.00 65 1014.3
20260904104019 22 227 0.0 0.0 0.00 0.00 0.00 65 1014.3
20260904103522 22 227 0.0 0.0 0.00 0.00 0.00 65 1014.3
20260904103022 22 227 0.0 0.0 0.00 0.00 0.00 65 1014.2
20260904102518 22 227 0.0 0.0 0.00 0.00 0.00 65 1014.1
20260904102018 22 227 0.0 0.0 0.00 0.00 0.00 65 1014.1
20260904101517 22 227 0.0 0.0 0.00 0.00 0.00 65 1014.0
20260904101018 22 227 0.0 0.0 0.00 0.00 0.00 65 1014.1
20260904100517 22 227 0.0 0.0 0.00 0.00 0.00 64 1014.1
20260904100017 22 227 0.0 0.0 0.00 0.00 0.00 64 1014.1
20260904095521 22 227 0.0 0.0 0.00 0.00 0.00 64 1014.0
20260904095017 22 227 0.0 0.0 0.00 0.00 0.00 64 1013.9
20260904094533 22 227 0.0 0.0 0.00 0.00 0.00 64 1013.8
20260904094015 22 227 0.0 0.0 0.00 0.00 0.00 64 1014.0
20260904093515 23 227 0.0 0.0 0.00 0.00 0.00 64 1014.0
20260904093017 23 227 0.0 0.0 0.00 0.00 0.00 63 1014.0
20260904092516 23 227 0.0 0.0 0.00 0.00 0.00 63 1013.8
20260904092013 23 227 0.0 0.0 0.00 0.00 0.00 63 1013.8
20260904091513 23 227 0.0 0.0 0.00 0.00 0.00 63 1013.8
20260904091011 23 227 0.0 0.0 0.00 0.00 0.00 63 1013.9
20260904090511 23 227 0.0 0.0 0.00 0.00 0.00 63 1013.9
20260904090028 23 227 0.0 0.0 0.00 0.00 0.00 63 1013.8
20260904085511 23 227 0.0 0.0 0.00 0.00 0.00 63 1013.8
20260904085011 23 227 0.0 0.0 0.00 0.00 0.00 63 1013.8
20260904084512 23 227 0.0 0.0 0.00 0.00 0.00 63 1013.8
20260904084013 23 227 0.0 0.0 0.00 0.00 0.00 63 1013.8
20260904083510 23 227 0.0 0.0 0.00 0.00 0.00 63 1013.7
20260904083009 23 227 0.0 0.0 0.00 0.00 0.00 63 1013.8
20260904082508 23 227 0.0 0.0 0.00 0.00 0.00 63 1013.7
20260904082008 23 227 0.0 0.0 0.00 0.00 0.00 63 1013.8
20260904081509 23 227 0.0 0.0 0.00 0.00 0.00 63 1013.8
20260904081006 24 227 0.0 0.0 0.00 0.00 0.00 63 1013.7
20260904080507 24 227 0.0 0.0 0.00 0.00 0.00 63 1013.7
20260904080008 24 227 0.0 0.0 0.00 0.00 0.00 63 1013.7
20260904075506 24 227 0.0 0.0 0.00 0.00 0.00 63 1013.7
20260904075005 24 227 0.0 0.0 0.00 0.00 0.00 62 1013.6
20260904074503 24 227 0.0 0.0 0.00 0.00 0.00 62 1013.7
20260904074003 25 227 0.0 0.0 0.00 0.00 0.00 61 1013.8
20260904073503 25 227 0.0 0.0 0.00 0.00 0.00 61 1013.7
20260904073002 25 227 0.0 0.0 0.00 0.00 0.00 61 1013.7
20260904072059 25 227 0.0 0.0 0.00 0.00 0.00 60 1013.8
20260904071620 26 227 0.0 0.0 0.00 0.00 0.00 59 1013.8
20260904071100 26 227 0.0 0.0 0.00 0.00 0.00 57 1013.8
20260904070559 26 227 0.0 0.0 0.00 0.00 0.00 57 1013.7
20260904070116 26 227 0.0 0.0 0.00 0.00 0.00 57 1013.7
20260904065600 26 227 0.0 0.0 0.00 0.00 0.00 56 1013.8
20260904065058 26 227 0.0 0.0 0.00 0.00 0.00 57 1013.7
20260904064557 26 227 0.0 0.0 0.00 0.00 0.00 57 1013.6
20260904064057 26 227 0.0 0.0 0.00 0.00 0.00 57 1013.6
20260904063557 26 227 0.0 0.0 0.00 0.00 0.00 57 1013.7
20260904063105 26 227 0.0 0.0 0.00 0.00 0.00 57 1013.7
20260904062559 26 227 0.0 0.0 0.00 0.00 0.00 57 1013.8
20260904062055 26 227 0.0 0.0 0.00 0.00 0.00 57 1013.7
20260904061555 26 227 0.0 0.0 0.00 0.00 0.00 57 1013.9
20260904061054 26 227 0.0 0.0 0.00 0.00 0.00 57 1013.9
20260904060556 26 227 0.0 0.0 0.00 0.00 0.00 57 1013.9
20260904060054 26 227 0.0 0.0 0.00 0.00 0.00 57 1013.9
20260904055553 26 227 0.0 0.0 0.00 0.00 0.00 57 1013.9
20260904055052 26 227 0.0 0.0 0.00 0.00 0.00 57 1013.9
20260904054553 26 227 0.0 0.0 0.00 0.00 0.00 57 1014.0
20260904054051 26 227 0.0 0.0 0.00 0.00 0.00 57 1014.1
20260904053552 26 227 0.0 0.0 0.00 0.00 0.00 57 1014.1
20260904053101 26 227 0.0 0.0 0.00 0.00 0.00 57 1014.1
20260904052550 26 227 0.0 0.0 0.00 0.00 0.00 57 1014.1
20260904052049 26 227 0.0 0.0 0.00 0.00 0.00 57 1014.1
20260904051549 26 227 0.0 0.0 0.00 0.00 0.00 58 1014.1
20260904051047 26 227 0.0 0.0 0.00 0.00 0.00 58 1014.1
20260904050546 26 227 0.0 0.0 0.00 0.00 0.00 58 1014.2
20260904050047 26 227 0.0 0.0 0.00 0.00 0.00 58 1014.2
20260904045546 26 227 0.0 0.0 0.00 0.00 0.00 58 1014.3
20260904045046 26 227 0.0 0.0 0.00 0.00 0.00 59 1014.3
20260904044546 25 227 0.0 0.0 0.00 0.00 0.00 59 1014.3
20260904044046 26 227 0.0 0.0 0.00 0.00 0.00 59 1014.3
20260904043545 26 227 0.0 0.0 0.00 0.00 0.00 59 1014.3
20260904043056 25 227 0.0 0.0 0.00 0.00 0.00 59 1014.3
20260904042551 25 227 0.0 0.0 0.00 0.00 0.00 59 1014.4
20260904042044 25 227 0.0 0.0 0.00 0.00 0.00 59 1014.3
20260904041544 25 227 0.0 0.0 0.00 0.00 0.00 60 1014.2
20260904041046 25 227 0.0 0.0 0.00 0.00 0.00 60 1014.3
20260904040542 25 227 0.0 0.0 0.00 0.00 0.00 60 1014.3
20260904040100 25 227 0.0 0.0 0.00 0.00 0.00 60 1014.3
20260904035541 25 227 0.0 0.0 0.00 0.00 0.00 61 1014.3
20260904035041 25 227 0.0 0.0 0.00 0.00 0.00 61 1014.4
20260904034541 25 227 0.0 0.0 0.00 0.00 0.00 61 1014.4
20260904034041 25 227 0.0 0.0 0.00 0.00 0.00 62 1014.3
20260904033541 25 227 0.0 0.0 0.00 0.00 0.00 62 1014.4
20260904033043 25 227 0.0 0.0 0.00 0.00 0.00 62 1014.5
20260904032541 25 227 0.0 0.0 0.00 0.00 0.00 62 1014.4
20260904032041 25 227 0.0 0.0 0.00 0.00 0.00 62 1014.5
20260904031553 25 227 0.0 0.0 0.00 0.00 0.00 62 1014.5
20260904031040 25 227 0.0 0.0 0.00 0.00 0.00 62 1014.5
20260904030540 25 227 0.0 0.0 0.00 0.00 0.00 62 1014.6
20260904030040 25 227 0.0 0.0 0.00 0.00 0.00 62 1014.5
20260904025540 25 227 0.0 0.0 0.00 0.00 0.00 62 1014.6
20260904025040 25 227 0.0 0.0 0.00 0.00 0.00 62 1014.6
20260904024539 25 227 0.0 0.0 0.00 0.00 0.00 63 1014.6
20260904024039 26 227 0.0 0.0 0.00 0.00 0.00 63 1014.5
20260904023543 26 227 0.0 0.0 0.00 0.00 0.00 62 1014.5
20260904023039 26 227 0.0 0.0 0.00 0.00 0.00 62 1014.5
20260904022538 26 227 0.0 0.0 0.00 0.00 0.00 62 1014.5
20260904022039 26 227 0.0 0.0 0.00 0.00 0.00 62 1014.5
20260904021538 26 227 0.0 0.0 0.00 0.00 0.00 62 1014.5
20260904021038 26 227 0.0 0.0 0.00 0.00 0.00 62 1014.4
20260904020538 26 227 0.0 0.0 0.00 0.00 0.00 62 1014.4
20260904020042 26 227 0.0 0.0 0.00 0.00 0.00 62 1014.4
20260904015539 26 227 0.0 0.0 0.00 0.00 0.00 62 1014.4
20260904015038 26 227 0.0 0.0 0.00 0.00 0.00 62 1014.4
20260904014538 26 227 0.0 1.6 0.00 0.00 0.00 61 1014.4
20260904014038 26 227 0.0 1.6 0.00 0.00 0.00 61 1014.3
20260904013539 27 288 0.0 0.0 0.00 0.00 0.00 60 1014.2
20260904013044 27 288 0.0 0.0 0.00 0.00 0.00 60 1014.2
20260904012537 27 288 0.0 0.0 0.00 0.00 0.00 59 1014.1
20260904012037 27 288 0.0 0.0 0.00 0.00 0.00 59 1014.1
20260904011543 27 288 0.0 0.0 0.00 0.00 0.00 58 1014.1
20260904011036 27 288 0.0 0.0 0.00 0.00 0.00 57 1014.0
20260904010536 27 288 0.0 0.0 0.00 0.00 0.00 57 1013.8
20260904010036 28 288 0.0 0.0 0.00 0.00 0.00 56 1013.9
20260904005535 28 288 0.0 0.0 0.00 0.00 0.00 56 1013.7
20260904005035 28 288 0.0 0.0 0.00 0.00 0.00 56 1013.7